EW3317 Weather Reports


time (UTC)temp
C
wind
direction
speed
KPH
gust
KPH
rain 1hr
cm
rain 24hr
cm
rain mn
cm
humidity
%
barometer
mb
20260906221517 31 196 6.4 35.4 0.00 0.00 0.00 12 1005.4
20260906220019 31 272 6.4 24.1 0.00 0.00 0.00 12 1005.4
20260906214515 31 195 12.9 33.8 0.00 0.00 0.00 12 1005.8
20260906213014 31 211 9.7 27.4 0.00 0.00 0.00 12 1005.7
20260906211512 31 214 12.9 30.6 0.00 0.00 0.00 13 1005.9
20260906210014 31 252 20.9 38.6 0.00 0.00 0.00 12 1006.2
20260906204509 31 229 8.0 32.2 0.00 0.00 0.00 13 1006.4
20260906203025 31 289 14.5 30.6 0.00 0.00 0.00 13 1006.6
20260906201510 31 263 17.7 30.6 0.00 0.00 0.00 13 1006.6
20260906200006 31 250 17.7 32.2 0.00 0.00 0.00 13 1006.6
20260906194505 31 298 11.3 29.0 0.00 0.00 0.00 13 1006.7
20260906193006 31 254 14.5 27.4 0.00 0.00 0.00 13 1006.8
20260906191611 31 228 6.4 24.1 0.00 0.00 0.00 13 1007.0
20260906190100 31 201 17.7 40.2 0.00 0.00 0.00 13 1007.2
20260906184600 31 224 8.0 33.8 0.00 0.00 0.00 13 1007.4
20260906183103 31 243 9.7 32.2 0.00 0.00 0.00 13 1007.7
20260906181556 30 158 9.7 30.6 0.00 0.00 0.00 14 1007.8
20260906180104 30 169 1.6 14.5 0.00 0.00 0.00 17 1008.1
20260906174550 29 193 8.0 24.1 0.00 0.00 0.00 18 1008.5
20260906173044 29 140 8.0 17.7 0.00 0.00 0.00 18 1008.7
20260906171544 29 138 4.8 29.0 0.00 0.00 0.00 19 1008.9
20260906170033 28 158 8.0 17.7 0.00 0.00 0.00 22 1009.0
20260906164529 27 127 9.7 14.5 0.00 0.00 0.00 25 1009.1
20260906163024 26 124 9.7 14.5 0.00 0.00 0.00 30 1009.3
20260906161535 24 143 4.8 14.5 0.00 0.00 0.00 34 1009.6
20260906160015 23 131 8.0 16.1 0.00 0.00 0.00 34 1009.8
20260906154511 23 149 8.0 12.9 0.00 0.00 0.00 34 1009.8
20260906153007 23 134 1.6 6.4 0.00 0.00 0.00 33 1009.8
20260906151504 23 128 0.0 3.2 0.00 0.00 0.00 34 1009.9
20260906150107 22 4 0.0 0.0 0.00 0.00 0.00 35 1010.0
20260906144554 21 4 0.0 0.0 0.00 0.00 0.00 41 1010.1
20260906143050 20 4 0.0 0.0 0.00 0.00 0.00 42 1010.3
20260906141559 18 4 0.0 0.0 0.00 0.00 0.00 45 1010.4
20260906140040 18 4 0.0 0.0 0.00 0.00 0.00 47 1010.4
20260906134538 17 4 0.0 0.0 0.00 0.00 0.00 44 1010.5
20260906133041 17 4 0.0 0.0 0.00 0.00 0.00 45 1010.5
20260906131530 16 4 0.0 3.2 0.00 0.00 0.00 44 1010.4
20260906130028 16 4 3.2 9.7 0.00 0.00 0.00 46 1010.3
20260906124526 15 354 0.0 1.6 0.00 0.00 0.00 45 1010.2
20260906123029 16 354 0.0 6.4 0.00 0.00 0.00 46 1010.3
20260906121533 16 325 0.0 6.4 0.00 0.00 0.00 46 1010.4
20260906120023 15 332 0.0 4.8 0.00 0.00 0.00 46 1010.3
20260906114530 15 343 0.0 0.0 0.00 0.00 0.00 46 1010.4
20260906113022 15 316 0.0 12.9 0.00 0.00 0.00 46 1010.3
20260906111522 15 342 0.0 4.8 0.00 0.00 0.00 48 1010.3
20260906110019 15 342 0.0 1.6 0.00 0.00 0.00 47 1010.4
20260906104519 15 342 0.0 3.2 0.00 0.00 0.00 47 1010.5
20260906103019 16 341 0.0 0.0 0.00 0.00 0.00 46 1010.5
20260906101518 16 341 0.0 4.8 0.00 0.00 0.00 45 1010.5
20260906100028 17 316 0.0 3.2 0.00 0.00 0.00 42 1010.5
20260906094517 17 316 0.0 0.0 0.00 0.00 0.00 44 1010.4
20260906093016 17 315 1.6 6.4 0.00 0.00 0.00 43 1010.3
20260906091517 16 319 0.0 3.2 0.00 0.00 0.00 45 1010.4
20260906090015 16 319 0.0 0.0 0.00 0.00 0.00 48 1010.3
20260906084517 16 319 0.0 1.6 0.00 0.00 0.00 47 1010.5
20260906083014 15 319 0.0 3.2 0.00 0.00 0.00 48 1010.4
20260906081513 16 319 0.0 1.6 0.00 0.00 0.00 47 1010.6
20260906080016 16 319 1.6 3.2 0.00 0.00 0.00 45 1010.6
20260906074508 16 319 1.6 6.4 0.00 0.00 0.00 44 1010.6
20260906073008 17 324 1.6 4.8 0.00 0.00 0.00 44 1010.8
20260906071506 16 324 0.0 6.4 0.00 0.00 0.00 47 1010.5
20260906070005 16 324 3.2 4.8 0.00 0.00 0.00 45 1010.4
20260906064504 18 324 0.0 4.8 0.00 0.00 0.00 42 1010.4
20260906063059 18 300 1.6 6.4 0.00 0.00 0.00 40 1010.6
20260906061558 17 301 1.6 6.4 0.00 0.00 0.00 42 1010.5
20260906060125 17 299 1.6 11.3 0.00 0.00 0.00 42 1010.5
20260906054607 18 330 3.2 6.4 0.00 0.00 0.00 40 1010.5
20260906053053 18 330 0.0 6.4 0.00 0.00 0.00 40 1010.7
20260906051553 18 300 0.0 0.0 0.00 0.00 0.00 40 1010.7
20260906050052 18 297 1.6 6.4 0.00 0.00 0.00 39 1010.8
20260906044552 19 301 0.0 6.4 0.00 0.00 0.00 37 1010.9
20260906043052 19 303 0.0 8.0 0.00 0.00 0.00 38 1010.8
20260906041551 18 339 3.2 12.9 0.00 0.00 0.00 40 1010.8
20260906040050 18 336 0.0 4.8 0.00 0.00 0.00 41 1010.9
20260906034600 18 359 0.0 4.8 0.00 0.00 0.00 40 1010.8
20260906033049 20 8 1.6 6.4 0.00 0.00 0.00 37 1010.7
20260906031549 20 8 1.6 4.8 0.00 0.00 0.00 35 1010.7
20260906030046 21 354 4.8 6.4 0.00 0.00 0.00 34 1010.5
20260906024547 21 8 4.8 12.9 0.00 0.00 0.00 34 1010.2
20260906023043 22 37 3.2 8.0 0.00 0.00 0.00 33 1010.0
20260906021545 22 62 6.4 17.7 0.00 0.00 0.00 33 1009.8
20260906020043 23 50 6.4 17.7 0.00 0.00 0.00 32 1009.6
20260906014548 23 39 4.8 17.7 0.00 0.00 0.00 32 1009.4
20260906013042 23 67 6.4 19.3 0.00 0.00 0.00 31 1009.3
20260906011541 23 83 4.8 14.5 0.00 0.00 0.00 30 1009.2
20260906010053 24 65 6.4 14.5 0.00 0.00 0.00 29 1009.1
20260906004552 25 84 6.4 16.1 0.00 0.00 0.00 28 1009.1
20260906003040 25 54 6.4 19.3 0.00 0.00 0.00 28 1008.9
20260906001555 26 65 9.7 19.3 0.00 0.00 0.00 28 1008.7
20260906000039 25 86 6.4 19.3 0.00 0.00 0.00 28 1008.5
20260905234539 26 86 9.7 20.9 0.00 0.00 0.00 27 1008.6
20260905233038 26 10 9.7 22.5 0.00 0.00 0.00 27 1008.5
20260905231537 27 66 11.3 20.9 0.00 0.00 0.00 25 1008.4
20260905230039 27 104 6.4 17.7 0.00 0.00 0.00 25 1008.4
20260905224536 27 63 6.4 19.3 0.00 0.00 0.00 25 1008.4
20260905223048 27 81 8.0 19.3 0.00 0.00 0.00 25 1008.4